User: anonymous   Login
Location: *
(37.5724°S, 58.0067°E)
Time: 01:44:22
(UTC+00:00)
Language:

GEOS 3 Rocket - Orbit

View from above orbital plane
View from above orbital plane
View from above satellite
View from above satellite

Ground track
Ground track

The orbit data is extracted from the following two-line orbital elements,

1  7735U 75027B   20328.53230049 -.00000122 +00000-0 +23682-4 0  9995
2  7735 114.9731 066.4970 0055620 267.6065 091.8648 14.24621566368989
Epoch (UTC): 23 November 2020 12:46:30
Eccentricity: 0.0055620
inclination: 114.9731°
perigee height: 770 km
apogee height: 850 km
right ascension of ascending node: 66.4970°
argument of perigee: 267.6065°
revolutions per day: 14.24621566
mean anomaly at epoch: 91.8648°
orbit number at epoch: 36898

The dashed part of the orbit path shows where the satellite is in the earth's shadow,  

DLR